[[{"header":{"parameterUnit":"m.s-1","parameterCategory":2,"la1":30.2991,"la2":30.254,"lo1":-89.0895,"lo2":-89.0444,"dy":0.0017,"dx":0.0017,"nx":28,"ny":28,"refTime":"2023-08-01T03:00:00:Z","depth":"0","parameterNumber":2,"parameterNumberName":"U-component_of_CURRENTS"},"data":[0,0,0,0,0,0,0,0,0,0,0,0,0,0,0,0,0,0,0,0,0,0,0,0,0,0,0,0,0,0,0,0,0,0,0,0,0,0,0,0,0,0,0,0,0,0,0,0,0,0,0,0,0,0,0,0,0,0,-0.4826,-0.4826,0,-0.4807,-0.4806,-0.4806,-0.4745,-0.4744,-0.4743,-0.4742,-0.4654,-0.4652,-0.4651,0,0,0,0,0,0,0,0,0,0,0,0,0,-0.4502,-0.451,-0.4826,-0.4826,-0.4826,-0.4807,-0.4806,-0.4806,-0.4745,-0.4744,-0.4743,-0.4741,-0.4654,-0.4652,-0.4651,0,0,0,0,0,0,0,0,0,0,0,0,0,-0.4576,-0.4512,-0.4826,-0.4797,-0.4794,-0.4807,-0.4806,-0.4805,-0.4745,-0.4744,-0.4742,-0.4741,-0.4655,-0.4653,-0.465,-0.4668,0,0,-0.4644,-0.4643,0,0,0,0,0,0,0,0,-0.4572,-0.4588,-0.4801,-0.4799,-0.4796,-0.478,-0.4659,-0.4757,-0.4746,-0.476,-0.4742,-0.474,-0.4693,-0.4688,-0.4683,-0.4663,-0.466,-0.4644,-0.4643,-0.4642,-0.4641,0,0,0,0,0,0,0,-0.4568,-0.4586,-0.4815,-0.4801,-0.4798,-0.4678,-0.469,-0.4676,-0.4731,-0.4758,-0.4755,-0.4759,-0.469,-0.4685,-0.468,-0.4658,-0.4644,-0.4642,-0.4641,-0.464,-0.4734,-0.4738,0,0,0,0,0,0,-0.4598,-0.4585,-0.4815,-0.4814,-0.4682,-0.4687,-0.4699,-0.4784,-0.4733,-0.4725,-0.4761,-0.4757,-0.469,-0.4683,-0.4677,-0.4717,-0.4642,-0.464,-0.4638,-0.473,-0.4735,-0.4739,0,0,0,0,0,0,-0.4592,-0.4622,-0.4816,-0.4695,-0.4712,-0.4697,-0.479,-0.4784,-0.4778,-0.4736,-0.4725,-0.476,-0.4688,-0.468,-0.4696,-0.4712,-0.4639,-0.4637,-0.4726,-0.4732,-0.4737,-0.4783,0,0,0,0,0,0,-0.4584,-0.4622,-0.4681,-0.4702,-0.4721,-0.4854,-0.4792,-0.4785,-0.4784,-0.4779,-0.4732,-0.4722,-0.4686,-0.47,-0.4694,-0.4708,-0.4635,-0.4721,-0.4728,-0.4735,-0.4777,-0.479,-0.4801,0,0,0,0,0,-0.4574,-0.4676,-0.4687,-0.4712,-0.4811,-0.4856,-0.4856,-0.4831,-0.4786,-0.4812,-0.4782,-0.4724,-0.4741,-0.4702,-0.4694,-0.4707,-0.4718,-0.4726,-0.4735,-0.4772,-0.4787,-0.4801,0,0,0,0,0,0,-0.4538,-0.468,-0.4692,-0.4825,-0.4849,-0.4848,-0.4862,-0.4839,-0.4834,-0.4822,-0.4762,-0.4753,-0.478,-0.4758,-0.4715,-0.4767,-0.4724,-0.4732,-0.4755,-0.477,-0.4781,-0.4769,-0.4633,0,0,0,0,0,-0.457,-0.47,-0.4765,-0.4858,-0.4881,-0.4868,-0.4874,-0.487,-0.4868,-0.4862,-0.4835,-0.4817,-0.4813,-0.48,-0.4808,-0.4821,-0.4709,-0.4836,-0.4848,-0.4858,-0.4851,-0.4687,-0.468,-0.4767,-0.4767,-0.4767,0,0,-0.4562,-0.4666,-0.4724,-0.4859,-0.4866,-0.4922,-0.4868,-0.4905,-0.4934,-0.4855,-0.4883,-0.4862,-0.4835,-0.4861,-0.487,-0.4834,-0.4779,-0.4869,-0.4876,-0.4864,-0.4694,-0.4684,-0.4675,-0.4773,-0.4772,-0.4771,0,0,-0.4586,-0.4722,-0.4806,-0.4876,-0.494,-0.4957,-0.4975,-0.5,-0.4996,-0.503,-0.4983,-0.4964,-0.4975,-0.494,-0.4924,-0.5009,-0.4859,-0.5034,-0.5054,-0.4896,-0.4884,-0.4872,-0.471,-0.4683,-0.5022,-0.5022,-0.5022,0,-0.4535,-0.468,-0.4817,-0.4914,-0.4941,-0.4981,-0.5012,-0.5061,-0.5082,-0.5048,-0.5059,-0.5005,-0.5002,-0.4957,-0.5021,-0.5023,-0.4909,-0.4985,-0.4899,-0.4885,-0.4872,-0.4708,-0.4678,-0.5026,-0.5025,-0.5025,-0.5025,0,-0.4612,-0.472,-0.477,-0.4927,-0.501,-0.5036,-0.5139,-0.519,-0.5182,-0.5161,-0.5127,-0.5112,-0.5044,-0.5076,-0.5085,-0.5011,-0.4952,-0.4931,-0.4834,-0.4864,-0.4693,-0.466,-0.503,-0.5029,-0.5028,-0.5027,0,0,-0.4448,-0.4739,-0.4746,-0.4792,-0.4994,-0.5038,-0.5168,-0.5189,-0.516,-0.5209,-0.5118,-0.5165,-0.5093,-0.5077,-0.5054,-0.4969,-0.4816,-0.4937,-0.4927,-0.4727,-0.4441,-0.4242,-0.4186,-0.4757,-0.4752,-0.4749,-0.4351,0,-0.4378,-0.4524,-0.471,-0.4797,-0.4852,-0.5005,-0.5094,-0.5172,-0.518,-0.5144,-0.5112,-0.505,-0.511,-0.505,-0.4981,-0.4883,-0.4735,-0.4924,-0.4486,-0.4473,-0.425,-0.4144,-0.402,-0.3641,-0.4318,-0.4313,-0.4309,0,-0.4361,-0.4446,-0.4523,-0.4691,-0.4718,-0.4795,-0.4871,-0.4959,-0.5003,-0.5009,-0.4963,-0.4931,-0.4879,-0.4897,-0.4665,-0.478,-0.4611,-0.4516,-0.4496,-0.4266,-0.4212,-0.373,-0.3555,-0.3575,-0.4257,-0.4261,-0.4265,0,-0.4165,-0.4314,-0.4339,-0.4412,-0.4627,-0.4652,-0.4735,-0.485,-0.4887,-0.489,-0.4866,-0.4784,-0.4697,-0.4554,-0.4413,-0.4518,-0.4088,-0.4177,-0.3803,-0.3787,-0.3572,-0.3544,-0.3316,-0.3897,-0.3898,-0.3899,-0.39,0,-0.4067,-0.4078,-0.4223,-0.4262,-0.4267,-0.4469,-0.4473,-0.4591,-0.4652,-0.4619,-0.4731,-0.4626,-0.4603,-0.4391,-0.4298,-0.3918,-0.3949,-0.3751,-0.3645,-0.359,-0.357,-0.3492,-0.3571,-0.3884,-0.3887,-0.389,-0.3893,0,-0.3925,-0.4031,-0.4063,-0.4175,-0.4224,-0.4232,-0.4407,-0.4395,-0.4488,-0.4453,-0.4456,-0.445,-0.4193,-0.4079,-0.3776,-0.3681,-0.3314,-0.3218,-0.316,-0.3055,-0.2823,-0.2911,-0.252,-0.2454,-0.2796,-0.2788,-0.2782,0,-0.3835,-0.3844,-0.3984,-0.4008,-0.4056,-0.4107,-0.4174,-0.4334,-0.4333,-0.4293,-0.4233,-0.4006,-0.3773,-0.3302,-0.3106,-0.2784,-0.2872,-0.2477,-0.267,-0.2723,-0.2745,-0.2851,-0.2838,-0.2407,-0.2398,-0.2391,-0.2385,0,-0.3599,-0.368,-0.3718,-0.3814,-0.3867,-0.3934,-0.3991,-0.3949,-0.4047,-0.395,-0.3648,-0.3425,-0.3088,-0.27,-0.2386,-0.2233,-0.2477,-0.2311,-0.2363,-0.2392,-0.2489,-0.2404,-0.2787,-0.2319,-0.2326,-0.2331,-0.2334,-0.2337,-0.3365,-0.3351,-0.3444,-0.3515,-0.3618,-0.36,-0.3487,-0.3483,-0.3327,-0.3001,-0.2985,-0.2503,-0.2387,-0.1945,-0.1826,-0.1707,-0.1871,-0.1715,-0.1801,-0.1892,-0.1875,-0.21,-0.1532,-0.1533,-0.1535,-0.1537,-0.1538,0,-0.3005,-0.3074,-0.3127,-0.3192,-0.3192,-0.335,-0.3259,-0.3028,-0.2638,-0.2398,-0.2011,-0.1525,-0.1336,-0.1358,-0.1349,-0.1275,-0.1357,-0.1277,-0.1476,-0.1477,-0.1628,-0.1666,-0.1102,-0.1102,-0.1102,-0.1102,-0.1102,-0.1102,-0.2826,-0.2758,-0.2821,-0.2704,-0.2758,-0.2554,-0.2384,-0.2083,-0.1829,-0.1175,-0.0787,-0.0613,-0.0812,-0.1108,-0.1208,-0.1167,-0.125,-0.1133,-0.1224,-0.1466,-0.1521,-0.1573,-0.1627,-0.1064,-0.1065,-0.1052,-0.1052,-0.1052]},{"header":{"parameterUnit":"m.s-1","parameterCategory":2,"la1":30.2991,"la2":30.254,"lo1":-89.0895,"lo2":-89.0444,"dy":0.0017,"dx":0.0017,"nx":28,"ny":28,"refTime":"2023-08-01T03:00:00:Z","depth":"0","parameterNumber":3,"parameterNumberName":"V-component_of_CURRENTS"},"data":[0,0,0,0,0,0,0,0,0,0,0,0,0,0,0,0,0,0,0,0,0,0,0,0,0,0,0,0,0,0,0,0,0,0,0,0,0,0,0,0,0,0,0,0,0,0,0,0,0,0,0,0,0,0,0,0,0,0,-0.094,-0.0939,0,-0.083,-0.0829,-0.0828,-0.0731,-0.073,-0.0729,-0.0728,-0.0574,-0.0571,-0.0568,0,0,0,0,0,0,0,0,0,0,0,0,0,-0.0939,-0.0941,-0.094,-0.0939,-0.0937,-0.0831,-0.0829,-0.0828,-0.0731,-0.073,-0.0729,-0.0728,-0.0575,-0.0571,-0.0567,0,0,0,0,0,0,0,0,0,0,0,0,0,-0.0895,-0.0941,-0.094,-0.0877,-0.0871,-0.0831,-0.0829,-0.0827,-0.0732,-0.073,-0.0729,-0.0727,-0.0576,-0.0572,-0.0567,-0.0569,0,0,-0.0553,-0.055,0,0,0,0,0,0,0,0,-0.0898,-0.0895,-0.0888,-0.0881,-0.0874,-0.0794,-0.0772,-0.0739,-0.0732,-0.0783,-0.0728,-0.0726,-0.0645,-0.0635,-0.0617,-0.0562,-0.0555,-0.0552,-0.0549,-0.0547,-0.0546,0,0,0,0,0,0,0,-0.0901,-0.0899,-0.0896,-0.0887,-0.0878,-0.0811,-0.0804,-0.0765,-0.0723,-0.0779,-0.0772,-0.0762,-0.0641,-0.0622,-0.0612,-0.0553,-0.0552,-0.0548,-0.0545,-0.0543,-0.0403,-0.0402,0,0,0,0,0,0,-0.0926,-0.0903,-0.0899,-0.0892,-0.0884,-0.0813,-0.0805,-0.082,-0.0724,-0.0708,-0.0763,-0.0758,-0.063,-0.0618,-0.0606,-0.0579,-0.0547,-0.0543,-0.054,-0.0404,-0.0403,-0.0402,0,0,0,0,0,0,-0.0927,-0.0928,-0.0903,-0.0894,-0.0886,-0.0816,-0.0833,-0.0819,-0.0801,-0.0713,-0.0696,-0.076,-0.0629,-0.0613,-0.0574,-0.0573,-0.0541,-0.0536,-0.0405,-0.0404,-0.0402,-0.054,0,0,0,0,0,0,-0.0928,-0.0929,-0.0949,-0.0897,-0.0888,-0.089,-0.0834,-0.0818,-0.0798,-0.079,-0.0705,-0.0688,-0.0626,-0.0582,-0.057,-0.0566,-0.0533,-0.0406,-0.0404,-0.0403,-0.0536,-0.0543,-0.0549,0,0,0,0,0,-0.0928,-0.0976,-0.0952,-0.0951,-0.0919,-0.0892,-0.0881,-0.0823,-0.08,-0.0801,-0.0741,-0.0691,-0.056,-0.0579,-0.0564,-0.0559,-0.0407,-0.0405,-0.0403,-0.0533,-0.0542,-0.0549,0,0,0,0,0,0,-0.0988,-0.0969,-0.0941,-0.098,-0.0939,-0.0876,-0.0879,-0.0839,-0.0794,-0.0786,-0.0702,-0.0683,-0.0637,-0.0581,-0.0603,-0.0506,-0.0466,-0.0462,-0.057,-0.0577,-0.0584,-0.0626,-0.0529,0,0,0,0,0,-0.1012,-0.1036,-0.0993,-0.1017,-0.1011,-0.0947,-0.093,-0.0889,-0.0841,-0.0819,-0.0757,-0.0682,-0.0617,-0.0588,-0.0521,-0.0495,-0.0409,-0.0469,-0.0476,-0.0482,-0.0501,-0.041,-0.0411,-0.0395,-0.0395,-0.0395,0,0,-0.1032,-0.1029,-0.1037,-0.1029,-0.0997,-0.0994,-0.0934,-0.092,-0.0906,-0.0811,-0.0785,-0.071,-0.0613,-0.0568,-0.0541,-0.0525,-0.0424,-0.048,-0.0486,-0.0502,-0.0408,-0.041,-0.0412,-0.0394,-0.0394,-0.0394,0,0,-0.1069,-0.1094,-0.1109,-0.1096,-0.1063,-0.1038,-0.1042,-0.0986,-0.0956,-0.092,-0.0837,-0.0777,-0.0684,-0.0617,-0.057,-0.0575,-0.0461,-0.0534,-0.061,-0.0521,-0.0523,-0.0523,-0.0356,-0.034,-0.0541,-0.0541,-0.0541,0,-0.1085,-0.1114,-0.1104,-0.1114,-0.1114,-0.1069,-0.1076,-0.1051,-0.098,-0.0964,-0.0924,-0.0778,-0.0706,-0.0645,-0.0641,-0.0594,-0.0498,-0.06,-0.0535,-0.0534,-0.0532,-0.036,-0.0342,-0.0547,-0.0546,-0.0546,-0.0545,0,-0.1119,-0.1143,-0.1162,-0.1166,-0.1167,-0.1178,-0.1147,-0.1143,-0.1108,-0.1058,-0.0989,-0.0884,-0.08,-0.0753,-0.0705,-0.0652,-0.0567,-0.0557,-0.0531,-0.0543,-0.0358,-0.0337,-0.0556,-0.0554,-0.0552,-0.055,0,0,-0.1166,-0.1177,-0.1188,-0.1201,-0.1204,-0.1215,-0.1226,-0.1215,-0.1214,-0.1139,-0.1102,-0.1002,-0.0944,-0.0887,-0.08,-0.0727,-0.0616,-0.0655,-0.0647,-0.0515,-0.0355,-0.0287,-0.0254,-0.0605,-0.0603,-0.0602,-0.021,0,-0.119,-0.1233,-0.1224,-0.1272,-0.1306,-0.1291,-0.1304,-0.129,-0.1251,-0.121,-0.1111,-0.1037,-0.0994,-0.0939,-0.0874,-0.0668,-0.0576,-0.0719,-0.034,-0.0327,-0.029,-0.0235,-0.0194,0.0156,-0.0188,-0.0184,-0.0182,0,-0.1245,-0.1269,-0.132,-0.1348,-0.1359,-0.1376,-0.1414,-0.1403,-0.1351,-0.1311,-0.1246,-0.1147,-0.1024,-0.0987,-0.0689,-0.0781,-0.06,-0.0444,-0.0425,-0.0312,-0.0223,0.0106,0.021,0.035,-0.0147,-0.015,-0.0152,0,-0.1341,-0.1355,-0.1409,-0.1423,-0.1437,-0.1458,-0.1462,-0.1442,-0.1422,-0.1367,-0.1305,-0.1183,-0.1038,-0.0866,-0.0569,-0.0621,-0.0202,-0.0222,0.0022,0.0035,0.0168,0.0187,0.042,-0.0035,-0.0036,-0.0037,-0.0038,0,-0.1433,-0.1471,-0.1459,-0.1503,-0.1564,-0.1533,-0.1571,-0.1566,-0.1491,-0.1407,-0.1356,-0.1212,-0.1005,-0.0744,-0.0545,-0.0162,-0.0173,0.0032,0.0125,0.0131,0.0141,0.0346,0.037,-0.0022,-0.0025,-0.0028,-0.0031,0,-0.1551,-0.1544,-0.1604,-0.1613,-0.1624,-0.1674,-0.1648,-0.1643,-0.1564,-0.1436,-0.1403,-0.1178,-0.083,-0.0585,-0.0199,-0.006,0.0364,0.0374,0.0404,0.0488,0.077,0.0784,0.1123,0.1236,0.07,0.0704,0.0707,0,-0.1597,-0.1649,-0.1702,-0.1742,-0.1751,-0.179,-0.18,-0.1731,-0.1648,-0.1362,-0.1253,-0.0926,-0.0629,-0.0071,0.02,0.0576,0.0628,0.0809,0.0667,0.0811,0.0897,0.0888,0.0956,0.0853,0.0858,0.0861,0.0864,0,-0.1675,-0.1709,-0.1759,-0.1848,-0.1884,-0.1891,-0.1834,-0.174,-0.1541,-0.1339,-0.092,-0.0659,-0.0183,0.0249,0.0626,0.0814,0.0892,0.0889,0.1028,0.102,0.104,0.1186,0.0623,0.0894,0.0891,0.0888,0.0887,0.0886,-0.1708,-0.1773,-0.184,-0.1914,-0.1955,-0.1866,-0.1732,-0.155,-0.1284,-0.0722,-0.0557,0.0017,0.0308,0.0844,0.102,0.1299,0.122,0.137,0.1391,0.1382,0.1414,0.0934,0.1278,0.1278,0.1277,0.1276,0.1276,0,-0.1712,-0.1787,-0.1875,-0.1909,-0.1897,-0.1914,-0.1656,-0.138,-0.0897,-0.0371,0.0136,0.0793,0.1133,0.1347,0.1614,0.178,0.1783,0.1847,0.1836,0.1892,0.1495,0.1417,0.1815,0.1815,0.1815,0.1815,0.1814,0.1814,-0.1717,-0.1795,-0.1839,-0.1808,-0.1802,-0.1556,-0.1321,-0.0878,-0.0401,0.0492,0.1097,0.1516,0.1665,0.1901,0.2128,0.216,0.2309,0.2287,0.2383,0.2069,0.2024,0.1981,0.1914,0.241,0.2411,0.2771,0.2774,0.2777]}],[{"header":{"parameterUnit":"m.s-1","parameterCategory":2,"la1":30.2991,"la2":30.254,"lo1":-89.0895,"lo2":-89.0444,"dy":0.0017,"dx":0.0017,"nx":28,"ny":28,"refTime":"2023-08-01T03:00:00:Z","depth":"2","parameterNumber":2,"parameterNumberName":"U-component_of_CURRENTS"},"data":[0,0,0,0,0,0,0,0,0,0,0,0,0,0,0,0,0,0,0,0,0,0,0,0,0,0,0,0,0,0,0,0,0,0,0,0,0,0,0,0,0,0,0,0,0,0,0,0,0,0,0,0,0,0,0,0,0,0,-0.2378,-0.2379,0,-0.2438,-0.2438,-0.2439,-0.2485,-0.2486,-0.2486,-0.2487,-0.2637,-0.264,-0.2643,0,0,0,0,0,0,0,0,0,0,0,0,0,-0.2328,-0.2329,-0.2378,-0.2379,-0.238,-0.2438,-0.2438,-0.2439,-0.2485,-0.2486,-0.2486,-0.2487,-0.2635,-0.264,-0.2644,0,0,0,0,0,0,0,0,0,0,0,0,0,-0.2364,-0.2329,-0.2378,-0.2411,-0.2414,-0.2438,-0.2439,-0.2439,-0.2485,-0.2486,-0.2486,-0.2487,-0.2634,-0.2639,-0.2644,-0.2659,0,0,-0.266,-0.2662,0,0,0,0,0,0,0,0,-0.2362,-0.2365,-0.2405,-0.2408,-0.2413,-0.2456,-0.2476,-0.2518,-0.2485,-0.2456,-0.2487,-0.2488,-0.2585,-0.2594,-0.26,-0.2667,-0.2673,-0.2661,-0.2664,-0.2666,-0.2668,0,0,0,0,0,0,0,-0.2359,-0.2363,-0.24,-0.2406,-0.241,-0.2431,-0.2437,-0.2484,-0.2516,-0.2459,-0.2463,-0.2471,-0.2588,-0.2595,-0.2604,-0.2675,-0.2661,-0.2665,-0.2668,-0.267,-0.2681,-0.2679,0,0,0,0,0,0,-0.2352,-0.2361,-0.2398,-0.2402,-0.239,-0.2431,-0.2437,-0.244,-0.2513,-0.2525,-0.2471,-0.2473,-0.2586,-0.2598,-0.261,-0.2611,-0.2666,-0.2671,-0.2674,-0.2684,-0.2681,-0.2678,0,0,0,0,0,0,-0.2351,-0.2355,-0.2396,-0.2384,-0.2391,-0.2431,-0.2434,-0.2441,-0.2463,-0.2522,-0.2535,-0.2488,-0.2587,-0.2603,-0.2625,-0.2618,-0.2673,-0.2678,-0.2688,-0.2683,-0.2679,-0.2627,0,0,0,0,0,0,-0.2349,-0.2354,-0.2371,-0.2384,-0.2392,-0.2399,-0.2433,-0.2441,-0.2467,-0.2472,-0.2541,-0.2554,-0.2589,-0.2617,-0.263,-0.2626,-0.2682,-0.2691,-0.2686,-0.2681,-0.2632,-0.2621,-0.2612,0,0,0,0,0,-0.2347,-0.2355,-0.2371,-0.2377,-0.2408,-0.2399,-0.2404,-0.2435,-0.2467,-0.2462,-0.2494,-0.2553,-0.2592,-0.2619,-0.2636,-0.2633,-0.2694,-0.2687,-0.2681,-0.2637,-0.2624,-0.2612,0,0,0,0,0,0,-0.2345,-0.2361,-0.2379,-0.2394,-0.2394,-0.2407,-0.2407,-0.244,-0.2463,-0.2475,-0.2534,-0.2548,-0.2556,-0.259,-0.2618,-0.2609,-0.2647,-0.2643,-0.2607,-0.2595,-0.2585,-0.2622,-0.2686,0,0,0,0,0,-0.2352,-0.2348,-0.2369,-0.237,-0.237,-0.2394,-0.2404,-0.2425,-0.2442,-0.2455,-0.2497,-0.2527,-0.2539,-0.2565,-0.2578,-0.2597,-0.2617,-0.2594,-0.2584,-0.2576,-0.2609,-0.2601,-0.2595,-0.2657,-0.2657,-0.2657,0,0,-0.2355,-0.2354,-0.2361,-0.2368,-0.2366,-0.2373,-0.24,-0.2402,-0.2421,-0.2469,-0.2496,-0.2501,-0.253,-0.2527,-0.2536,-0.2564,-0.2555,-0.2568,-0.2562,-0.26,-0.2594,-0.2589,-0.2584,-0.2653,-0.2653,-0.2654,0,0,-0.2333,-0.2345,-0.234,-0.234,-0.2344,-0.2356,-0.236,-0.2378,-0.2396,-0.2415,-0.2436,-0.2435,-0.2475,-0.2481,-0.2494,-0.2441,-0.2494,-0.2434,-0.2439,-0.2429,-0.2426,-0.2423,-0.2399,-0.2395,-0.2441,-0.2441,-0.2441,0,-0.2344,-0.2341,-0.2335,-0.2328,-0.2342,-0.2349,-0.2364,-0.237,-0.2398,-0.2417,-0.2414,-0.2439,-0.2455,-0.2466,-0.243,-0.2427,-0.2425,-0.2491,-0.2422,-0.242,-0.2418,-0.2394,-0.239,-0.2438,-0.2438,-0.2439,-0.2439,0,-0.2318,-0.2332,-0.2313,-0.2315,-0.2325,-0.2321,-0.234,-0.2351,-0.2375,-0.2395,-0.2402,-0.2396,-0.2423,-0.2398,-0.2408,-0.2395,-0.2395,-0.2403,-0.2466,-0.241,-0.2386,-0.2383,-0.2433,-0.2434,-0.2435,-0.2436,0,0,-0.2285,-0.2307,-0.2296,-0.2319,-0.2328,-0.233,-0.2348,-0.2375,-0.2406,-0.2398,-0.2429,-0.2404,-0.2409,-0.242,-0.2413,-0.2399,-0.2352,-0.2399,-0.24,-0.24,-0.232,-0.2232,-0.2221,-0.2352,-0.2352,-0.2352,-0.2294,0,-0.2268,-0.2275,-0.2295,-0.2311,-0.2322,-0.2353,-0.2376,-0.2403,-0.2419,-0.2436,-0.2423,-0.2434,-0.2415,-0.2421,-0.2399,-0.237,-0.2349,-0.2367,-0.2355,-0.2355,-0.2305,-0.2216,-0.2031,-0.1958,-0.2292,-0.2291,-0.2291,0,-0.222,-0.2243,-0.227,-0.2337,-0.2346,-0.2365,-0.2417,-0.2443,-0.2466,-0.2484,-0.249,-0.2485,-0.2462,-0.2445,-0.2392,-0.2404,-0.2367,-0.2336,-0.2333,-0.2284,-0.2263,-0.2073,-0.1941,-0.2287,-0.2287,-0.2288,-0.2288,0,-0.2166,-0.2215,-0.2245,-0.2261,-0.2336,-0.2367,-0.2407,-0.2451,-0.2481,-0.251,-0.252,-0.2513,-0.2487,-0.2456,-0.2385,-0.2394,-0.2314,-0.232,-0.2207,-0.22,-0.206,-0.2041,-0.2289,-0.2289,-0.2289,-0.229,-0.229,0,-0.2121,-0.2142,-0.2226,-0.2237,-0.2287,-0.2351,-0.2399,-0.2443,-0.2496,-0.2493,-0.2535,-0.2514,-0.2488,-0.2437,-0.2391,-0.2273,-0.2318,-0.22,-0.2177,-0.2027,-0.2007,-0.2325,-0.233,-0.2287,-0.2288,-0.2288,-0.2289,0,-0.2038,-0.2093,-0.2132,-0.2226,-0.2255,-0.2283,-0.2382,-0.2411,-0.2479,-0.2471,-0.2478,-0.2499,-0.2416,-0.238,-0.2304,-0.2255,-0.2178,-0.2133,-0.1949,-0.1906,-0.2072,-0.2075,-0.2002,-0.1998,-0.1995,-0.1993,-0.1991,0,-0.2004,-0.2009,-0.2093,-0.2117,-0.2159,-0.2222,-0.2259,-0.2369,-0.2388,-0.2429,-0.24,-0.2367,-0.2274,-0.2159,-0.2058,-0.1956,-0.2061,-0.1773,-0.1759,-0.2056,-0.2042,-0.2049,-0.2056,-0.1534,-0.1528,-0.1523,-0.152,0,-0.1937,-0.1954,-0.1989,-0.202,-0.2062,-0.2105,-0.216,-0.2176,-0.2258,-0.227,-0.2222,-0.2167,-0.2035,-0.1834,-0.1738,-0.1667,-0.1777,-0.1674,-0.2017,-0.1643,-0.1611,-0.16,-0.1621,-0.1478,-0.1482,-0.1485,-0.1487,-0.1489,-0.1872,-0.187,-0.189,-0.1905,-0.1944,-0.1931,-0.1899,-0.1961,-0.1961,-0.1915,-0.1982,-0.1851,-0.1779,-0.1515,-0.1411,-0.134,-0.1464,-0.142,-0.1436,-0.1456,-0.142,-0.1386,-0.1202,-0.1204,-0.1206,-0.1208,-0.121,0,-0.1778,-0.177,-0.1778,-0.1764,-0.1711,-0.178,-0.1779,-0.1711,-0.1633,-0.1659,-0.1612,-0.14,-0.1262,-0.1209,-0.101,-0.0975,-0.098,-0.0955,-0.0961,-0.1001,-0.1036,-0.0981,-0.0646,-0.0644,-0.0643,-0.0642,0,0,-0.1726,-0.168,-0.1666,-0.1517,-0.1492,-0.1355,-0.1307,-0.1254,-0.1234,-0.1154,-0.1116,-0.1216,-0.1175,-0.0936,-0.085,-0.0715,-0.0861,-0.0674,-0.1117,-0.1163,-0.1198,-0.1281,-0.1237,0,0,0,0,0]},{"header":{"parameterUnit":"m.s-1","parameterCategory":2,"la1":30.2991,"la2":30.254,"lo1":-89.0895,"lo2":-89.0444,"dy":0.0017,"dx":0.0017,"nx":28,"ny":28,"refTime":"2023-08-01T03:00:00:Z","depth":"2","parameterNumber":3,"parameterNumberName":"V-component_of_CURRENTS"},"data":[0,0,0,0,0,0,0,0,0,0,0,0,0,0,0,0,0,0,0,0,0,0,0,0,0,0,0,0,0,0,0,0,0,0,0,0,0,0,0,0,0,0,0,0,0,0,0,0,0,0,0,0,0,0,0,0,0,0,-0.0449,-0.0448,0,-0.0375,-0.0374,-0.0373,-0.0317,-0.0316,-0.0315,-0.0314,-0.0102,-0.0097,-0.0092,0,0,0,0,0,0,0,0,0,0,0,0,0,-0.0524,-0.0523,-0.0449,-0.0448,-0.0446,-0.0375,-0.0374,-0.0373,-0.0317,-0.0316,-0.0315,-0.0314,-0.0104,-0.0098,-0.0092,0,0,0,0,0,0,0,0,0,0,0,0,0,-0.0477,-0.0523,-0.0449,-0.0408,-0.0403,-0.0375,-0.0374,-0.0373,-0.0317,-0.0316,-0.0315,-0.0314,-0.0106,-0.0098,-0.0091,-0.0069,0,0,-0.0069,-0.0065,0,0,0,0,0,0,0,0,-0.048,-0.0475,-0.0415,-0.041,-0.0405,-0.0351,-0.0322,-0.0264,-0.0317,-0.0353,-0.0314,-0.0313,-0.0172,-0.0159,-0.0153,-0.0059,-0.005,-0.0068,-0.0063,-0.006,-0.0058,0,0,0,0,0,0,0,-0.0483,-0.0478,-0.0422,-0.0414,-0.0408,-0.0386,-0.0379,-0.0312,-0.0269,-0.0349,-0.0344,-0.0332,-0.0168,-0.0161,-0.0147,-0.0047,-0.0068,-0.0062,-0.0057,-0.0054,0.009,0.0089,0,0,0,0,0,0,-0.0489,-0.0481,-0.0425,-0.042,-0.0437,-0.0386,-0.0378,-0.0372,-0.0273,-0.0257,-0.0333,-0.033,-0.0174,-0.0156,-0.014,-0.0085,-0.006,-0.0053,-0.0049,0.009,0.0089,0.0089,0,0,0,0,0,0,-0.0491,-0.0485,-0.0428,-0.0446,-0.0437,-0.0386,-0.038,-0.0371,-0.0356,-0.0261,-0.0243,-0.0326,-0.0172,-0.015,-0.0082,-0.0077,-0.005,-0.0043,0.0091,0.009,0.0089,0.0011,0,0,0,0,0,0,-0.0494,-0.0487,-0.0488,-0.0447,-0.0436,-0.0413,-0.038,-0.037,-0.035,-0.0344,-0.0249,-0.0229,-0.017,-0.0094,-0.0075,-0.0066,-0.0038,0.0092,0.009,0.0089,0.0014,0.0007,0.0001,0,0,0,0,0,-0.0497,-0.0504,-0.0489,-0.0482,-0.0439,-0.0413,-0.0407,-0.0368,-0.0351,-0.035,-0.0287,-0.0232,-0.0087,-0.0088,-0.0066,-0.0055,0.0092,0.0091,0.0089,0.0017,0.0009,0.0002,0,0,0,0,0,0,-0.0541,-0.0497,-0.048,-0.0474,-0.0446,-0.0403,-0.0398,-0.0373,-0.0327,-0.0319,-0.0232,-0.0208,-0.0153,-0.0097,-0.01,-0.002,0.0009,0.0012,-0.0054,-0.0061,-0.0067,-0.0064,-0.0031,0,0,0,0,0,-0.0551,-0.0544,-0.05,-0.0498,-0.0486,-0.0445,-0.043,-0.0406,-0.0358,-0.0339,-0.027,-0.0201,-0.0144,-0.0097,-0.0043,0.0012,0.0065,0.003,0.0023,0.0018,0.0033,0.0101,0.0102,0.0084,0.0084,0.0084,0,0,-0.0569,-0.0543,-0.0541,-0.0507,-0.0484,-0.0468,-0.0434,-0.0418,-0.0399,-0.0319,-0.0272,-0.0222,-0.0139,-0.0089,-0.0058,-0.0035,0.0046,0.0016,0.0011,0.003,0.0099,0.0101,0.0103,0.0083,0.0084,0.0084,0,0,-0.0596,-0.0579,-0.0577,-0.0556,-0.0521,-0.0494,-0.0491,-0.0446,-0.042,-0.0375,-0.032,-0.0263,-0.0172,-0.0111,-0.0068,-0.0072,-0.0001,-0.0065,-0.0073,-0.001,-0.0007,-0.0004,0.0044,0.0052,-0.0055,-0.0055,-0.0055,0,-0.0618,-0.0609,-0.0576,-0.0565,-0.055,-0.0507,-0.0503,-0.0472,-0.041,-0.0382,-0.0368,-0.0245,-0.0178,-0.0102,-0.0109,-0.0082,-0.0045,-0.0052,-0.0017,-0.0013,-0.0008,0.0041,0.0051,-0.0059,-0.0059,-0.0058,-0.0058,0,-0.0636,-0.0629,-0.063,-0.0599,-0.0581,-0.0576,-0.0526,-0.0502,-0.0468,-0.0427,-0.0359,-0.028,-0.0201,-0.0181,-0.014,-0.0079,-0.0064,-0.0045,0.0002,-0.0011,0.0041,0.0053,-0.0065,-0.0064,-0.0062,-0.0061,0,0,-0.0685,-0.0649,-0.065,-0.0645,-0.0601,-0.0592,-0.0559,-0.0514,-0.0488,-0.0427,-0.0381,-0.0292,-0.0252,-0.0202,-0.0147,-0.0083,-0.003,-0.0055,-0.005,-0.0006,0.0098,0.0124,0.0139,-0.001,-0.0008,-0.0006,0.0114,0,-0.071,-0.071,-0.0676,-0.0677,-0.0676,-0.0626,-0.06,-0.0553,-0.0501,-0.0446,-0.0358,-0.03,-0.0259,-0.0228,-0.0159,-0.0064,0.0,-0.0065,0.0106,0.0111,0.0137,0.0154,0.0129,0.0236,0.0126,0.0128,0.013,0,-0.0734,-0.0733,-0.0743,-0.0719,-0.0713,-0.0704,-0.0659,-0.063,-0.0539,-0.0495,-0.0415,-0.0347,-0.0243,-0.0216,-0.0043,-0.0092,-0.0001,0.0074,0.0081,0.0149,0.0161,0.0237,0.0263,0.015,0.0149,0.0147,0.0146,0,-0.0791,-0.0777,-0.0792,-0.0785,-0.0751,-0.0744,-0.0723,-0.065,-0.0622,-0.0526,-0.0488,-0.0363,-0.0291,-0.0168,-0.0011,-0.0029,0.0179,0.0175,0.0288,0.029,0.0329,0.0332,0.0305,0.0305,0.0305,0.0304,0.0304,0,-0.083,-0.084,-0.0826,-0.0837,-0.0861,-0.0807,-0.0806,-0.0759,-0.0682,-0.0638,-0.0524,-0.0447,-0.0275,-0.0135,-0.0011,0.0181,0.0183,0.0303,0.0334,0.0297,0.0295,0.0272,0.0267,0.0309,0.0308,0.0307,0.0306,0,-0.0884,-0.0873,-0.0897,-0.0887,-0.0891,-0.091,-0.0881,-0.0868,-0.0783,-0.0716,-0.0687,-0.0501,-0.0311,-0.0134,0.009,0.0191,0.0361,0.0429,0.0368,0.039,0.0425,0.0413,0.0559,0.0562,0.0563,0.0565,0.0566,0,-0.0907,-0.0926,-0.0956,-0.0992,-0.0994,-0.101,-0.1019,-0.0942,-0.0907,-0.0737,-0.0699,-0.0495,-0.0326,0.0005,0.0219,0.0446,0.0439,0.0544,0.0516,0.0441,0.0456,0.0442,0.0429,0.0527,0.0527,0.0528,0.0529,0,-0.0958,-0.0972,-0.1002,-0.1081,-0.1114,-0.1134,-0.1121,-0.1102,-0.0982,-0.0888,-0.0705,-0.0552,-0.021,0.0066,0.0357,0.0475,0.0498,0.0565,0.0533,0.0459,0.0418,0.043,0.0417,0.0535,0.0534,0.0534,0.0533,0.0533,-0.0999,-0.1047,-0.1098,-0.1167,-0.1209,-0.1226,-0.1217,-0.1161,-0.1081,-0.0887,-0.0748,-0.0478,-0.0202,0.0232,0.0438,0.0614,0.06,0.063,0.0625,0.0619,0.0587,0.0551,0.0686,0.0686,0.0687,0.0687,0.0687,0,-0.1051,-0.1102,-0.1178,-0.1248,-0.1289,-0.129,-0.1259,-0.1197,-0.1079,-0.0885,-0.0698,-0.0374,-0.0054,0.0233,0.0535,0.0702,0.0671,0.071,0.0643,0.0636,0.063,0.0595,0.0698,0.0699,0.0699,0.07,0,0,-0.1083,-0.1167,-0.1208,-0.1294,-0.133,-0.133,-0.1296,-0.1182,-0.1025,-0.0799,-0.0592,-0.0372,-0.0011,0.0195,0.0411,0.0578,0.0552,0.0576,0.0548,0.0435,0.0427,0.0564,0.05,0,0,0,0,0]}],[{"header":{"parameterUnit":"m.s-1","parameterCategory":2,"la1":30.2991,"la2":30.254,"lo1":-89.0895,"lo2":-89.0444,"dy":0.0017,"dx":0.0017,"nx":28,"ny":28,"refTime":"2023-08-01T03:00:00:Z","depth":"4","parameterNumber":2,"parameterNumberName":"U-component_of_CURRENTS"},"data":[0,0,0,0,0,0,0,0,0,0,0,0,0,0,0,0,0,0,0,0,0,0,0,0,0,0,0,0,0,0,0,0,0,0,0,0,0,0,0,0,0,0,0,0,0,0,0,0,0,0,0,0,0,0,0,0,0,0,-0.1522,-0.1522,0,-0.1565,-0.1565,-0.1566,-0.1614,-0.1615,-0.1616,-0.1617,-0.1671,-0.1672,-0.1673,0,0,0,0,0,0,0,0,0,0,0,0,0,-0.1481,-0.1481,-0.1522,-0.1522,-0.1523,-0.1565,-0.1565,-0.1566,-0.1614,-0.1615,-0.1616,-0.1617,-0.1671,-0.1672,-0.1673,0,0,0,0,0,0,0,0,0,0,0,0,0,-0.1508,-0.1481,-0.1522,-0.1552,-0.1556,-0.1565,-0.1565,-0.1566,-0.1614,-0.1615,-0.1616,-0.1617,-0.1671,-0.1672,-0.1673,-0.1658,0,0,-0.1677,-0.1677,0,0,0,0,0,0,0,0,-0.1507,-0.151,-0.1547,-0.155,-0.1554,-0.1586,-0.1571,-0.1598,-0.1614,-0.1592,-0.1617,-0.1618,-0.1643,-0.1647,-0.1652,-0.166,-0.1663,-0.1677,-0.1677,-0.1678,-0.1678,0,0,0,0,0,0,0,-0.1505,-0.1508,-0.1539,-0.1548,-0.1552,-0.1564,-0.1569,-0.1576,-0.161,-0.1594,-0.1597,-0.1602,-0.1645,-0.165,-0.1653,-0.1663,-0.1677,-0.1678,-0.1678,-0.1679,-0.1707,-0.1707,0,0,0,0,0,0,-0.1499,-0.1506,-0.1537,-0.154,-0.1533,-0.1564,-0.1569,-0.1574,-0.161,-0.1617,-0.1601,-0.1604,-0.1648,-0.1652,-0.1656,-0.1717,-0.1678,-0.1679,-0.168,-0.1707,-0.1707,-0.1708,0,0,0,0,0,0,-0.1498,-0.1501,-0.1536,-0.1524,-0.153,-0.1563,-0.1568,-0.1574,-0.161,-0.1616,-0.1623,-0.1634,-0.1649,-0.1654,-0.1686,-0.1716,-0.1679,-0.1681,-0.1707,-0.1707,-0.1707,-0.1789,0,0,0,0,0,0,-0.1496,-0.15,-0.1515,-0.1524,-0.153,-0.1555,-0.1567,-0.1574,-0.161,-0.1615,-0.1646,-0.165,-0.165,-0.1684,-0.1687,-0.1717,-0.1681,-0.1707,-0.1707,-0.1707,-0.1786,-0.1792,-0.1797,0,0,0,0,0,-0.1495,-0.1502,-0.1515,-0.152,-0.1544,-0.1556,-0.156,-0.1587,-0.161,-0.1625,-0.165,-0.1651,-0.1687,-0.1686,-0.1689,-0.172,-0.1707,-0.1707,-0.1707,-0.1784,-0.1791,-0.1797,0,0,0,0,0,0,-0.1497,-0.1508,-0.1522,-0.1536,-0.1553,-0.1565,-0.1584,-0.1603,-0.1634,-0.165,-0.166,-0.1666,-0.1703,-0.1691,-0.169,-0.1723,-0.1693,-0.1694,-0.175,-0.1757,-0.1762,-0.177,-0.1682,0,0,0,0,0,-0.1501,-0.151,-0.1524,-0.1539,-0.1551,-0.1575,-0.159,-0.1607,-0.1629,-0.1646,-0.1666,-0.1682,-0.1699,-0.1714,-0.1719,-0.1743,-0.1723,-0.1759,-0.1764,-0.1769,-0.1774,-0.1771,-0.1778,-0.1708,-0.1708,-0.1708,0,0,-0.1509,-0.1515,-0.1524,-0.1541,-0.156,-0.1585,-0.1588,-0.1615,-0.1648,-0.1645,-0.17,-0.1706,-0.1708,-0.1737,-0.1751,-0.1738,-0.1775,-0.1769,-0.1774,-0.1776,-0.1772,-0.1779,-0.1785,-0.1708,-0.1708,-0.1708,0,0,-0.1517,-0.1535,-0.1546,-0.1564,-0.1592,-0.1606,-0.1621,-0.1648,-0.1675,-0.1715,-0.1724,-0.175,-0.1772,-0.1783,-0.1791,-0.1824,-0.1803,-0.1821,-0.1863,-0.1861,-0.1867,-0.1872,-0.185,-0.1853,-0.1825,-0.1825,-0.1825,0,-0.1534,-0.1548,-0.1553,-0.1573,-0.16,-0.1622,-0.1653,-0.1679,-0.1715,-0.1738,-0.1742,-0.1785,-0.1795,-0.1834,-0.185,-0.1841,-0.1825,-0.1848,-0.1871,-0.1875,-0.188,-0.1855,-0.1857,-0.1829,-0.1829,-0.1828,-0.1828,0,-0.1542,-0.1574,-0.1586,-0.1621,-0.1646,-0.1677,-0.1709,-0.1745,-0.1781,-0.18,-0.1847,-0.1855,-0.1878,-0.1886,-0.1888,-0.1922,-0.1895,-0.1881,-0.1863,-0.1892,-0.1864,-0.1864,-0.1835,-0.1833,-0.1832,-0.1831,0,0,-0.1527,-0.1584,-0.1593,-0.1628,-0.168,-0.1698,-0.1759,-0.1807,-0.1849,-0.188,-0.1921,-0.1961,-0.1959,-0.1965,-0.1964,-0.1971,-0.1993,-0.1947,-0.1945,-0.1938,-0.1975,-0.1828,-0.1814,-0.1987,-0.1988,-0.1989,-0.1942,0,-0.1543,-0.1592,-0.1617,-0.1685,-0.1718,-0.1767,-0.1818,-0.1865,-0.1901,-0.194,-0.1958,-0.199,-0.199,-0.2003,-0.2015,-0.1996,-0.1999,-0.2006,-0.1935,-0.1932,-0.181,-0.1811,-0.1991,-0.1943,-0.1943,-0.1943,-0.1943,0,-0.1536,-0.1576,-0.164,-0.1725,-0.1746,-0.1793,-0.1876,-0.192,-0.1975,-0.2002,-0.2034,-0.2036,-0.2063,-0.2048,-0.2044,-0.2048,-0.2023,-0.2003,-0.2,-0.1835,-0.1786,-0.1905,-0.1943,-0.1943,-0.1943,-0.1943,-0.1943,0,-0.1503,-0.159,-0.1647,-0.1677,-0.1771,-0.1821,-0.1874,-0.1941,-0.1977,-0.2033,-0.205,-0.2079,-0.208,-0.2072,-0.2036,-0.2046,-0.2004,-0.2006,-0.1847,-0.1836,-0.1951,-0.1946,-0.1997,-0.1997,-0.1997,-0.1997,-0.1998,0,-0.149,-0.154,-0.1644,-0.1675,-0.1746,-0.1816,-0.1883,-0.194,-0.2004,-0.2018,-0.2073,-0.2068,-0.2087,-0.2061,-0.2038,-0.1927,-0.2003,-0.1847,-0.1813,-0.1983,-0.1982,-0.1951,-0.1946,-0.1996,-0.1996,-0.1996,-0.1997,0,-0.1433,-0.1506,-0.1573,-0.1689,-0.1729,-0.1773,-0.188,-0.1915,-0.1991,-0.2007,-0.2022,-0.2059,-0.2004,-0.1994,-0.1956,-0.1898,-0.183,-0.1774,-0.1941,-0.1918,-0.1667,-0.1667,-0.1594,-0.1589,-0.1584,-0.158,-0.1577,0,-0.1404,-0.1435,-0.1558,-0.1595,-0.1654,-0.1734,-0.1783,-0.189,-0.1908,-0.1972,-0.1953,-0.1941,-0.1934,-0.1754,-0.1777,-0.1696,-0.1679,-0.1651,-0.1678,-0.165,-0.1626,-0.1633,-0.164,-0.1569,-0.1568,-0.1567,-0.1565,0,-0.1345,-0.1398,-0.1451,-0.1517,-0.1583,-0.1636,-0.1707,-0.1712,-0.1797,-0.1892,-0.1815,-0.1768,-0.1689,-0.1635,-0.1569,-0.1528,-0.1678,-0.1601,-0.1612,-0.1637,-0.1619,-0.1601,-0.1613,-0.1549,-0.1551,-0.1553,-0.1554,0,-0.1296,-0.1309,-0.1373,-0.1412,-0.1488,-0.1494,-0.1556,-0.1562,-0.1594,-0.1668,-0.1634,-0.1619,-0.1654,-0.1545,-0.1496,-0.1424,-0.141,-0.139,-0.1412,-0.143,-0.1396,-0.1351,-0.1159,0,0,0,0,0,-0.124,-0.1231,-0.1261,-0.1287,-0.1348,-0.1375,-0.1477,-0.1536,-0.1624,-0.1521,-0.1569,-0.1484,-0.1391,-0.1402,-0.1285,-0.1423,-0.1421,-0.1287,-0.1413,-0.1457,-0.1476,-0.1451,0,0,0,0,0,0,-0.12,-0.1228,-0.1215,-0.1158,-0.1143,-0.1186,-0.124,-0.131,-0.1261,-0.1357,-0.1303,-0.1385,-0.1306,-0.1395,-0.124,-0.1242,-0.1294,-0.1298,-0.1294,-0.1446,-0.1464,-0.1479,-0.146,0,0,0,0,0]},{"header":{"parameterUnit":"m.s-1","parameterCategory":2,"la1":30.2991,"la2":30.254,"lo1":-89.0895,"lo2":-89.0444,"dy":0.0017,"dx":0.0017,"nx":28,"ny":28,"refTime":"2023-08-01T03:00:00:Z","depth":"4","parameterNumber":3,"parameterNumberName":"V-component_of_CURRENTS"},"data":[0,0,0,0,0,0,0,0,0,0,0,0,0,0,0,0,0,0,0,0,0,0,0,0,0,0,0,0,0,0,0,0,0,0,0,0,0,0,0,0,0,0,0,0,0,0,0,0,0,0,0,0,0,0,0,0,0,0,-0.0363,-0.0363,0,-0.033,-0.033,-0.033,-0.0303,-0.0303,-0.0303,-0.0302,-0.0248,-0.0247,-0.0246,0,0,0,0,0,0,0,0,0,0,0,0,0,-0.0378,-0.0378,-0.0363,-0.0363,-0.0362,-0.033,-0.033,-0.0329,-0.0303,-0.0303,-0.0302,-0.0302,-0.0248,-0.0247,-0.0246,0,0,0,0,0,0,0,0,0,0,0,0,0,-0.0363,-0.0378,-0.0364,-0.0344,-0.0342,-0.033,-0.033,-0.0329,-0.0304,-0.0303,-0.0302,-0.0302,-0.0249,-0.0247,-0.0245,-0.0248,0,0,-0.0241,-0.024,0,0,0,0,0,0,0,0,-0.0363,-0.0362,-0.0348,-0.0345,-0.0343,-0.0319,-0.0315,-0.03,-0.0304,-0.032,-0.0302,-0.0301,-0.0269,-0.0266,-0.0263,-0.0245,-0.0243,-0.024,-0.0239,-0.0239,-0.0238,0,0,0,0,0,0,0,-0.0365,-0.0363,-0.0352,-0.0347,-0.0344,-0.0328,-0.0325,-0.0312,-0.0299,-0.0318,-0.0316,-0.031,-0.0268,-0.0265,-0.0262,-0.0242,-0.024,-0.0239,-0.0238,-0.0237,-0.0203,-0.0203,0,0,0,0,0,0,-0.0368,-0.0365,-0.0353,-0.0351,-0.035,-0.0328,-0.0325,-0.0329,-0.03,-0.0294,-0.031,-0.0309,-0.0268,-0.0264,-0.026,-0.0237,-0.0239,-0.0237,-0.0236,-0.0203,-0.0203,-0.0203,0,0,0,0,0,0,-0.0368,-0.0367,-0.0354,-0.0355,-0.0352,-0.0329,-0.0332,-0.0328,-0.0328,-0.0294,-0.0288,-0.0314,-0.0267,-0.0262,-0.0245,-0.0235,-0.0237,-0.0235,-0.0203,-0.0203,-0.0203,-0.0206,0,0,0,0,0,0,-0.0369,-0.0368,-0.0374,-0.0356,-0.0352,-0.0352,-0.0332,-0.0328,-0.0324,-0.0321,-0.0295,-0.0289,-0.0267,-0.0247,-0.0243,-0.0233,-0.0234,-0.0202,-0.0203,-0.0203,-0.0205,-0.0206,-0.0206,0,0,0,0,0,-0.037,-0.0381,-0.0375,-0.0373,-0.036,-0.0353,-0.035,-0.0332,-0.0325,-0.0329,-0.0305,-0.029,-0.0245,-0.0246,-0.0241,-0.023,-0.0202,-0.0203,-0.0203,-0.0205,-0.0206,-0.0206,0,0,0,0,0,0,-0.0393,-0.0379,-0.0371,-0.0379,-0.0368,-0.0348,-0.0351,-0.0339,-0.0325,-0.0324,-0.0292,-0.0284,-0.0266,-0.0253,-0.0256,-0.0222,-0.0221,-0.022,-0.0225,-0.0225,-0.0225,-0.0221,-0.0233,0,0,0,0,0,-0.0401,-0.0407,-0.0388,-0.0396,-0.0392,-0.0374,-0.037,-0.036,-0.0342,-0.0337,-0.0314,-0.029,-0.0263,-0.0249,-0.0232,-0.0215,-0.0184,-0.0205,-0.0205,-0.0206,-0.02,-0.0135,-0.0128,-0.0203,-0.0203,-0.0203,0,0,-0.0413,-0.0406,-0.0409,-0.0401,-0.0394,-0.0389,-0.0371,-0.0372,-0.0362,-0.0333,-0.0319,-0.0296,-0.0262,-0.0238,-0.0229,-0.0224,-0.0172,-0.0206,-0.0206,-0.02,-0.0134,-0.0127,-0.012,-0.0203,-0.0203,-0.0203,0,0,-0.0435,-0.0435,-0.0442,-0.0435,-0.0424,-0.0412,-0.0414,-0.0397,-0.0384,-0.0371,-0.0339,-0.0303,-0.0284,-0.0238,-0.0216,-0.0209,-0.018,-0.0215,-0.0204,-0.0141,-0.0134,-0.0127,-0.0092,-0.0082,-0.0209,-0.0209,-0.0209,0,-0.0449,-0.0454,-0.0444,-0.0445,-0.0439,-0.0423,-0.0424,-0.041,-0.0388,-0.0369,-0.0371,-0.0302,-0.0275,-0.0213,-0.0209,-0.0205,-0.018,-0.0203,-0.014,-0.0132,-0.0125,-0.009,-0.0079,-0.0209,-0.0209,-0.0209,-0.0209,0,-0.0467,-0.0472,-0.0479,-0.0472,-0.0465,-0.047,-0.0444,-0.0435,-0.0421,-0.0395,-0.0348,-0.0303,-0.0256,-0.0241,-0.0222,-0.0157,-0.0161,-0.015,-0.0135,-0.0117,-0.0083,-0.0071,-0.0209,-0.0209,-0.0209,-0.0209,0,0,-0.0501,-0.0492,-0.0497,-0.0496,-0.0481,-0.048,-0.0462,-0.0433,-0.0415,-0.0382,-0.0343,-0.0281,-0.0253,-0.0226,-0.0188,-0.013,-0.006,-0.0124,-0.012,-0.0083,0.0058,0.0024,0.0034,-0.004,-0.0037,-0.0036,0.0058,0,-0.0519,-0.0532,-0.0516,-0.0524,-0.0527,-0.05,-0.0485,-0.0455,-0.0423,-0.0385,-0.0314,-0.0274,-0.0248,-0.0225,-0.0158,-0.0092,-0.0028,-0.0088,0.003,0.0033,0.0007,0.0047,-0.0028,0.0067,0.0069,0.0071,0.0073,0,-0.054,-0.0547,-0.0562,-0.0548,-0.0546,-0.0548,-0.0517,-0.0498,-0.0432,-0.0403,-0.0336,-0.0289,-0.0198,-0.0184,-0.0039,-0.0083,-0.0011,0.0045,0.0051,0.0031,0.0022,0.0048,0.0094,0.0093,0.0091,0.009,0.0088,0,-0.0575,-0.0575,-0.0592,-0.0591,-0.0575,-0.0573,-0.0561,-0.0511,-0.049,-0.0414,-0.0389,-0.0279,-0.023,-0.0119,-0.0011,-0.0022,0.0142,0.0145,0.019,0.0187,0.019,0.0182,0.0267,0.0267,0.0267,0.0266,0.0266,0,-0.0597,-0.061,-0.0617,-0.0628,-0.0651,-0.0616,-0.0619,-0.0585,-0.0529,-0.05,-0.0407,-0.0349,-0.021,-0.0104,-0.0005,0.012,0.0153,0.0203,0.022,0.0182,0.0173,0.0198,0.0189,0.027,0.0269,0.0268,0.0268,0,-0.0628,-0.0632,-0.0658,-0.0663,-0.0673,-0.0691,-0.0681,-0.0673,-0.0609,-0.0566,-0.0543,-0.0399,-0.0261,-0.0124,0.0057,0.0119,0.0246,0.0288,0.0225,0.0235,0.0246,0.0235,0.0346,0.0346,0.0346,0.0345,0.0345,0,-0.0638,-0.0659,-0.0705,-0.0743,-0.0754,-0.0776,-0.0793,-0.0735,-0.0711,-0.059,-0.0565,-0.0418,-0.0318,-0.0082,0.0057,0.0242,0.0269,0.032,0.0302,0.0254,0.0259,0.0249,0.0239,0.0345,0.0345,0.0345,0.0345,0,-0.0663,-0.0692,-0.0723,-0.0809,-0.0851,-0.0877,-0.088,-0.0861,-0.0776,-0.0722,-0.0567,-0.0423,-0.0264,-0.0082,0.0058,0.0194,0.0274,0.0319,0.032,0.0304,0.0254,0.0257,0.0248,0.0344,0.0345,0.0345,0.0345,0,-0.069,-0.0731,-0.0794,-0.086,-0.0925,-0.0951,-0.0942,-0.0884,-0.0837,-0.0682,-0.0632,-0.0431,-0.0306,-0.0104,0.003,0.0149,0.0178,0.0203,0.0211,0.0213,0.0139,0.0054,0.0111,0,0,0,0,0,-0.0711,-0.0765,-0.0839,-0.0911,-0.0974,-0.1,-0.0989,-0.0956,-0.0867,-0.0769,-0.069,-0.0531,-0.0291,-0.0166,-0.0052,0.0001,0.0171,0.0134,0.0195,0.0342,0.0342,0.0274,0,0,0,0,0,0,-0.0733,-0.0807,-0.0844,-0.0937,-0.0989,-0.1041,-0.1029,-0.0969,-0.0886,-0.0779,-0.0641,-0.0535,-0.0298,-0.0366,-0.0061,-0.002,0.0027,0.026,0.0262,0.0341,0.0342,0.0342,0.0273,0,0,0,0,0]}]]